OBJECT D, 44313

Orbit data source: Space-Track

You're viewing an Uncataloged Satellite

Recently launched and/or uncataloged satellites may have evolving metadata. Metadata may include but not limited to: Owner, Maufacturer, Bus, Motor, and Mission.

OBJECT D, 44313 is a satellite owned by Changsha Tianyi (CN) in LEO that was launched on Wed, 05 Jun 2019 UTC via a CHANG ZHENG 11 launch vehicle from the Yellow Sea Launch Area, China (YSLA). Unknown objects in Earth's orbit typically refer to objects detected orbiting the Earth but have not yet been identified or cataloged. These objects could be anything from previously untracked satellites, spent rocket stages, debris from satellite collisions, or even natural meteoroids temporarily captured by Earth's gravity.

Loading next visibility...
Identifier
44313, 2019-032D
Orbit
LEO
Country
Flag of CNCN / PRC
Related business
None
Manufacturer
Changsha Tianyi
Mission
Operational Commercial Imaging
Bus & Motor
CUBESAT 6U, Unknown motor
Mass
~10 kg wet, 10 kg dry
Launch date (UTC)
2019-06-05 (6 years ago)
Launch vehicle
CHANG ZHENG 11
Launch site
Yellow Sea Launch Area, China (YSLA)
Object type
Unknown
Shape & HBR
Box + 2 Pan, 0.5 m
Radar Cross Section
0.126 m², Small (<0.1 m²)

Expand to show TLE details & history
Last TLE update: 5 hours ago

TLE from 5 hours ago
0 OBJECT D
1 44313U 19032D   25242.92163856  .00170301  00000-0  15719-2 0  9992
2 44313  44.9862  56.0790 0013397 234.4539 125.5110 15.66236827344530
Epoch: 2025-08-30T22:07Z
TLE epoch observation values (Epoch: 2025-08-30T22:07:09.571Z)
Latitude
-0.00003°
Longitude
104.9401°
Altitude
374.939 km
Speed
7.684 km/s
True Right ascension
03h 44m 18s
True Declination
0° 00' 00"
Sunlit
Object was in daylight at epoch
Visualization orbit readout
Latitude
Unknown
Longitude
Unknown
Altitude
Unknown
Speed
Unknown
Apparent Right ascension
Unknown
Apparent Declination
Unknown
Sunlit
N/A
Visualization observer readout
Local Sidereal Time
18:59:49
Azimuth
Unknown
Elevation
Unknown
Doppler factor
Unknown
Orbital elements
Apogee altitude
380.365 km
Perigee altitude
362.28 km
Semi-major axis
6,749.459 km
Eccentricity
0.00134
Inclination
44.9862°
RAAN
56.079°
Arg. of periapsis
234.4539°
True anomaly
125.63584°
Mean anomaly
125.511°
Eccentric anomaly
125.57343°
Mean motion
3.91417 °/min
Orbital period
91.97 mins
BSTAR
0.0015719
Loading maneuver chart data...
Computing Atmospheric mass density...
Loading historical data...
Loading historical data...
Loading historical data...
Loading historical data...
Loading historical data...
Loading historical data...
Loading historical data...

Documentation

Showing up to 5 results
|